Location: Unspecified
(0.0000°N, 0.0000°E)
Time: 15:19:23
(UTC+00:00)

Hubble Space Telescope - Pass Details

Date: 15 February 2018
Orbit: 537 x 541 km, 28.5° (Epoch: 24 February)

Event Time Altitude Azimuth Distance (km) Brightness Sun altitude
Exits shadow 05:06:41 21° 331° (NNW) 1,234 2.2 -16.4°
Maximum altitude 05:06:41 21° 331° (NNW) 1,234 2.2 -16.4°
Drops below altitude 10° 05:09:50 10° 21° (NNE) 1,780 3.5 -15.7°
Sets 05:12:31 0° 38° (NE) 2,670 4.7 -15.0°
